IUS R/B(1)

Satellite information

Favourite Embed

Satellite Type and Status

ROCKET BODYIN ORBIT

Key statistics

Satellite IUS R/B(1) at a glance.

Uptime

9693

Days in orbit

Revolutions

≈ 2.3

Per day

Orbit

GTO

Geostationary Transfer Orbit

Inclination

28.5

Latest

Satellite identification and parameters

Extended collection of information and parameters for IUS R/B(1).

Object identification

Identified? True

Debris? False

Object name: IUS R/B(1)

International designator: 1999-017C

Object number (NORAD): 25671

Object ID (CCSDS): 25671

Country: UNITED STATES OF AMERICA (US)

Current information (Y/N): Y

RCS size: LARGE

Orbital parameters

Period: 628.416 minutes

Inclination: 28.4875 deg

SMA: 24302.924 km

Apoapsis: 35502.48 km

Periapsis: 347.099 km

RAAN: 85.5198 deg

Eccentricy: 0.7232747

Argument of periapsis: 145.7914 deg

Mean anomaly: 295.3489 deg

Mean motion: 2.29147413 rev/day

Mean motion (dot): 0.00001243 rev/day2

B* drag term: 0.0018213 1/REarth

Two-line elements (TLE)

Creation date: Oct. 22, 2025, 12:06 a.m.

Reference frame: TEME

Reference center: EARTH

Epoch: Oct. 21, 2025, 8:57 a.m. UTC

TLE line 0: 0 IUS R/B(1)

TLE line 1: 1 25671U 99017C 25294.37334544 .00001243 00000-0 18213-2 0 9999

TLE line 2: 2 25671 28.4875 85.5198 7232747 145.7914 295.3489 2.29147413 54255

Live tracking on map

Real-time ground track for satellite IUS R/B(1).

In-orbit conjunctions

There are no conjunctions computed for IUS R/B(1), at the moment. Check back to stay up to date, as we update our databases every day.

Go to all conjunctions

Associated space launch

Early warning satellite

IUS R/B(1) was lifted into orbit during the mission ‘Titan 402B IUS | DSP 19’, on board a Titan 402B IUS space rocket.

The launch took place on April 9, 1999, 5:01 p.m. from Space Launch Complex 41.

For more information about the launch, click the button.

Launch to space Titan 402B IUS | DSP 19
Titan 402B IUS | DSP 19

Agency: N/A

Status: Launch Failure

Launch date: April 9, 1999, 5:01 p.m. UTC

Rocket: Titan 402B IUS

Launch pad: Space Launch Complex 41

Location: Cape Canaveral SFS, FL, USA

...

Latest news about this satellite

There are no fresh news available about this satellite. Check back as we update our databases every day.


Newsletter sign-up

Weekly statistics, charts and insights to help you stay on top of the space industry.